Key West, FL

2:17 AM EDT on March 26, 2017 (GMT -0400)
Key West International

Weather History for KEYW - March, 2014

Change the Weather History Date:

Saturday, March 22, 2014

  Actual Average Record
Temperature  
Mean Temperature 75 °F 74 °F  
Max Temperature 82 °F 79 °F 87 °F (1977)
Min Temperature 67 °F 69 °F 53 °F (1996)
Degree Days  
Heating Degree Days 0 0  
Month to date heating degree days 0 0  
Since 1 July heating degree days 22 66  
Cooling Degree Days 10 9  
Month to date cooling degree days 190 180  
Year to date cooling degree days 616 528  
Growing Degree Days 24 (Base 50)    
Moisture  
Dew Point 68 °F    
Average Humidity 79    
Maximum Humidity 90    
Minimum Humidity 67    
Precipitation  
Precipitation 0.00 in 0.05 in 0.78 in (1941)
Month to date precipitation 2.35 1.53  
Year to date precipitation 9.95 5.06  
Snow  
Snow 0.00 in - - ()
Month to date snowfall 0.0  
Since 1 July snowfall 0.0  
Snow Depth 0.00 in    
Sea Level Pressure  
Sea Level Pressure 30.06 in    
Wind  
Wind Speed 3 mph (ESE)    
Max Wind Speed 8 mph    
Max Gust Speed 11 mph    
Visibility 10 miles    
Events      
T = Trace of Precipitation, MM = Missing Value Source: NWS Daily Summary

Daily Weather History Graph

Daily Weather History Graph

Search for Another Location

Airport or City:

Trip Planner

Search our weather history database for the weather conditions in past years. The results will help you decide how hot, cold, wet, or windy it might be!

Date:

Astronomy

Mar. 22, 2014 Rise Set
Actual Time 7:28 AM EDT 7:39 PM EDT
Civil Twilight 7:06 AM EDT 8:01 PM EDT
Nautical Twilight 6:39 AM EDT 8:28 PM EDT
Astronomical Twilight 6:13 AM EDT 8:55 PM EDT
Moon 12:27 AM EDT (3/22) 11:41 AM EDT (3/22)
Length of Visible Light 12h 55m
Length of Day
12h 10m
Waning Gibbous, 65% of the Moon is Illuminated
Mar 22
Waning Gibbous
Mar 23
Last Quarter
Mar 30
New
Apr 7
First Quarter
Apr 15
Full

Hourly Weather History & Observations

Time (EDT) Temp. Heat Index Dew Point Humidity Pressure Visibility Wind Dir Wind Speed Gust Speed Precip Events Conditions
12:53 AM 71.1 °F - 64.0 °F 78% 30.06 in 10.0 mi SSE 5.8 mph - N/A   Clear
1:53 AM 72.0 °F - 64.0 °F 76% 30.06 in 10.0 mi South 5.8 mph - N/A   Clear
2:53 AM 72.0 °F - 64.0 °F 76% 30.04 in 10.0 mi SW 5.8 mph - N/A   Clear
3:53 AM 70.0 °F - 64.0 °F 81% 30.03 in 10.0 mi Calm Calm - N/A   Clear
4:53 AM 69.1 °F - 64.9 °F 87% 30.03 in 10.0 mi Calm Calm - N/A   Clear
5:53 AM 68.0 °F - 64.9 °F 90% 30.04 in 10.0 mi Calm Calm - N/A   Clear
6:53 AM 68.0 °F - 64.9 °F 90% 30.05 in 10.0 mi Calm Calm - N/A   Clear
7:53 AM 69.1 °F - 66.9 °F 93% 30.07 in 10.0 mi Calm Calm - N/A   Clear
8:53 AM 73.9 °F - 70.0 °F 87% 30.09 in 10.0 mi Calm Calm - N/A   Clear
9:53 AM 75.0 °F - 66.0 °F 73% 30.10 in 10.0 mi SW 4.6 mph - N/A   Mostly Cloudy
10:53 AM 77.0 °F - 66.0 °F 69% 30.10 in 10.0 mi SSW 3.5 mph - N/A   Mostly Cloudy
11:53 AM 78.1 °F - 66.9 °F 68% 30.10 in 10.0 mi Calm Calm - N/A   Partly Cloudy
12:18 PM 79.0 °F - 69.1 °F 72% 30.10 in 10.0 mi NNW 6.9 mph - N/A   Mostly Cloudy
12:53 PM 79.0 °F - 69.1 °F 72% 30.08 in 10.0 mi Variable 3.5 mph - N/A   Overcast
1:19 PM 79.0 °F - 69.1 °F 72% 30.08 in 10.0 mi South 5.8 mph - N/A   Partly Cloudy
1:53 PM 79.0 °F - 70.0 °F 74% 30.07 in 10.0 mi South 6.9 mph - N/A   Partly Cloudy
2:09 PM 78.1 °F - 69.1 °F 74% 30.06 in 10.0 mi Variable 5.8 mph - N/A   Mostly Cloudy
2:53 PM 78.1 °F - 70.0 °F 76% 30.05 in 10.0 mi SSE 6.9 mph - N/A   Mostly Cloudy
3:53 PM 78.1 °F - 70.0 °F 76% 30.03 in 10.0 mi Variable 4.6 mph - N/A   Mostly Cloudy
4:21 PM 79.0 °F - 71.1 °F 77% 30.02 in 10.0 mi SE 5.8 mph - N/A   Scattered Clouds
4:53 PM 79.0 °F - 71.1 °F 77% 30.02 in 10.0 mi Variable 3.5 mph - N/A   Clear
5:33 PM 79.0 °F - 71.1 °F 77% 30.02 in 10.0 mi North 6.9 mph - N/A   Mostly Cloudy
5:53 PM 81.0 °F 84.9 °F 71.1 °F 72% 30.03 in 10.0 mi North 6.9 mph - N/A   Mostly Cloudy
6:05 PM 81.0 °F 84.9 °F 71.1 °F 72% 30.03 in 10.0 mi North 5.8 mph - N/A   Scattered Clouds
6:53 PM 80.1 °F 83.6 °F 71.1 °F 74% 30.04 in 10.0 mi North 5.8 mph - N/A   Scattered Clouds
7:53 PM 77.0 °F - 70.0 °F 79% 30.06 in 10.0 mi North 5.8 mph - N/A   Clear
8:53 PM 75.9 °F - 71.1 °F 85% 30.06 in 10.0 mi NNE 3.5 mph - N/A   Clear
9:53 PM 75.0 °F - 70.0 °F 84% 30.07 in 10.0 mi Calm Calm - N/A   Clear
10:53 PM 75.0 °F - 71.1 °F 87% 30.08 in 10.0 mi NE 3.5 mph - N/A   Clear
11:53 PM 73.9 °F - 70.0 °F 87% 30.08 in 10.0 mi ESE 3.5 mph - N/A   Clear